Find GPS III SV08

NORAD ID: 64202 Int'l Des: 2025-116 Owner: SFSSC Country: US Constellation: GPS operational
MEOCIRCULARGNSS

現在のビュー

3D地球を読み込み中...

About GPS III SV08

GPS III SV08 (NORAD 64202) is a GPS constellation satellite launched May 30, 2025 by SFSSC of US. It operates in MEO, CIRCULAR, GNSS orbit with a mass of 4352.00 kg.

GPS III SV08について

説明を読み込み中...

次回通過

Passes for default location (London). Set your location on the main map for personalized predictions.

高度履歴

Loading altitude history...

軌道要素

1 64202U 25116A 26163.38956388 -.00000065 00000-0 00000+0 0 9998
2 64202 55.2312 31.3239 0008563 338.8161 228.7168 2.00576015 7778
Epoch: Jun 12, 2026 • Age: 77 hours

現在のステータス

高度 20160.3 km
速度 3.88 km/s
衛星直下点 0.43°N, 85.76°W
打ち上げ日 May 30, 2025
運用期間 1 year
タイプ navigation

技術仕様

分類 Payload
質量 4352.00 kg
乾燥質量 2160.00 kg
総質量 4352.00 kg
長さ 3.40 m
直径 1.80 m
スパン 14.00 m
形状 Box + 2 pan
製造者 LMSSD
バスタイプ A2100
フェーズステータス In Orbit
所有者/国 SFSSC/US

Most Searched